^^
No Wait Weather (KNEBELLE1) Station Historical Data
Daily Summary for May 21, 2019 Units:  English    Metric   Both
Daily Weekly Monthly Yearly Custom
  High: Low: Average:
Temperature: 55.1 °F 46.4 °F 49 °F
Dew Point: 54.54 °F 43.55 °F 47.5 °F
Humidity: 99% 82% 95%
Wind Speed: 9mph 0mph 0.9mph
Wind Gust: 14mph - -
Wind- - ENE
Pressure: 29.79 in 29.20 in -
Precipitation: 0.75 in    
Historical Graphs
 
 
Tabular Data for May 21, 2019
Time Temperature Dew Point Pressure Wind Wind Speed Wind Gust Humidity Rainfall Rate (Hourly) solar
00:04 48.8 °F 43.55 °F 29.79 in Calm   4 mph 82% 0 in WeatherCatV3.04B91 W/m2
00:09 48.8 °F 43.55 °F 29.79 in Calm     82% 0 in WeatherCatV3.04B91 W/m2
00:14 48.8 °F 43.55 °F 29.78 in Calm   4 mph 82% 0 in WeatherCatV3.04B91 W/m2
00:19 48.8 °F 43.55 °F 29.78 in NE 4 mph 4 mph 82% 0 in WeatherCatV3.04B91 W/m2
00:24 48.8 °F 43.55 °F 29.78 in Calm   3 mph 82% 0 in WeatherCatV3.04B91 W/m2
00:29 48.8 °F 43.55 °F 29.77 in Calm     82% 0 in WeatherCatV3.04B91 W/m2
00:34 48.6 °F 43.67 °F 29.77 in NE 5 mph 5 mph 83% 0 in WeatherCatV3.04B91 W/m2
00:39 48.5 °F 43.58 °F 29.77 in NE 1 mph 4 mph 83% 0 in WeatherCatV3.04B91 W/m2
00:44 48.2 °F 43.59 °F 29.76 in Calm   9 mph 84% 0 in WeatherCatV3.04B91 W/m2
00:49 48 °F 43.71 °F 29.76 in Calm   6 mph 85% 0 in WeatherCatV3.04B91 W/m2
00:54 47.9 °F 43.92 °F 29.76 in Calm   5 mph 86% 0 in WeatherCatV3.04B91 W/m2
00:59 47.7 °F 44.02 °F 29.75 in NE 1 mph 5 mph 87% 0 in WeatherCatV3.04B91 W/m2
01:04 47.6 °F 43.92 °F 29.75 in ENE 2 mph 5 mph 87% 0 in WeatherCatV3.04B91 W/m2
01:09 47.4 °F 44.03 °F 29.75 in Calm   2 mph 88% 0 in WeatherCatV3.04B91 W/m2
01:14 47.4 °F 44.03 °F 29.75 in Calm   3 mph 88% 0 in WeatherCatV3.04B91 W/m2
01:19 47.3 °F 44.22 °F 29.75 in Calm   4 mph 89% 0 in WeatherCatV3.04B91 W/m2
01:24 47.3 °F 44.52 °F 29.75 in Calm   3 mph 90% 0 in WeatherCatV3.04B91 W/m2
01:29 47.3 °F 44.52 °F 29.75 in Calm   3 mph 90% 0 in WeatherCatV3.04B91 W/m2
01:34 47.3 °F 44.52 °F 29.75 in ENE 4 mph 4 mph 90% 0 in WeatherCatV3.04B91 W/m2
01:39 47.3 °F 44.52 °F 29.75 in Calm   7 mph 90% 0 in WeatherCatV3.04B91 W/m2
01:44 47.3 °F 44.81 °F 29.76 in Calm   3 mph 91% 0 in WeatherCatV3.04B91 W/m2
01:49 47.3 °F 44.81 °F 29.76 in Calm   6 mph 91% 0 in WeatherCatV3.04B91 W/m2
01:54 47.3 °F 44.81 °F 29.76 in Calm   11 mph 91% 0 in WeatherCatV3.04B91 W/m2
01:59 47.3 °F 44.81 °F 29.75 in Calm   11 mph 91% 0 in WeatherCatV3.04B91 W/m2
02:04 47.1 °F 44.61 °F 29.75 in Calm   4 mph 91% 0.1 in WeatherCatV3.04B91 W/m2
02:09 47.1 °F 44.9 °F 29.75 in Calm   3 mph 92% 0.14 in WeatherCatV3.04B91 W/m2
02:14 47 °F 44.8 °F 29.74 in NE 3 mph 3 mph 92% 0.15 in WeatherCatV3.04B91 W/m2
02:19 47 °F 45.08 °F 29.74 in Calm     93% 0.18 in WeatherCatV3.04B91 W/m2
02:24 46.8 °F 44.88 °F 29.74 in NE 3 mph 4 mph 93% 0.13 in WeatherCatV3.04B91 W/m2
02:29 46.8 °F 44.88 °F 29.72 in NE 7 mph 9 mph 93% 0.07 in WeatherCatV3.04B91 W/m2
02:34 46.8 °F 45.16 °F 29.72 in Calm   7 mph 94% 0.05 in WeatherCatV3.04B91 W/m2
02:39 46.8 °F 45.16 °F 29.72 in NE 5 mph 6 mph 94% 0 in WeatherCatV3.04B91 W/m2
02:44 46.8 °F 45.16 °F 29.73 in Calm   5 mph 94% 0 in WeatherCatV3.04B91 W/m2
02:49 46.8 °F 45.16 °F 29.73 in Calm     94% 0 in WeatherCatV3.04B91 W/m2
02:54 46.8 °F 45.16 °F 29.73 in NNE 3 mph 5 mph 94% 0 in WeatherCatV3.04B91 W/m2
02:59 46.8 °F 45.16 °F 29.74 in NNE 3 mph 3 mph 94% 0 in WeatherCatV3.04B91 W/m2
03:04 46.8 °F 45.44 °F 29.74 in NE 2 mph 5 mph 95% 0 in WeatherCatV3.04B91 W/m2
03:09 47 °F 45.64 °F 29.74 in NNE 1 mph 4 mph 95% 0 in WeatherCatV3.04B91 W/m2
03:14 47 °F 45.64 °F 29.73 in ENE 7 mph 10 mph 95% 0 in WeatherCatV3.04B91 W/m2
03:19 47 °F 45.64 °F 29.73 in Calm   4 mph 95% 0 in WeatherCatV3.04B91 W/m2
03:24 47 °F 45.64 °F 29.73 in ENE 2 mph 6 mph 95% 0 in WeatherCatV3.04B91 W/m2
03:29 47 °F 45.64 °F 29.72 in Calm   2 mph 95% 0 in WeatherCatV3.04B91 W/m2
03:34 47 °F 45.64 °F 29.72 in Calm   9 mph 95% 0 in WeatherCatV3.04B91 W/m2
03:39 47 °F 45.64 °F 29.72 in Calm   4 mph 95% 0 in WeatherCatV3.04B91 W/m2
03:44 47 °F 45.64 °F 29.70 in NE 3 mph 5 mph 95% 0 in WeatherCatV3.04B91 W/m2
03:49 47 °F 45.64 °F 29.70 in Calm     95% 0 in WeatherCatV3.04B91 W/m2
03:54 47 °F 45.64 °F 29.70 in Calm   8 mph 95% 0 in WeatherCatV3.04B91 W/m2
03:59 47 °F 45.64 °F 29.69 in NE 4 mph 4 mph 95% 0 in WeatherCatV3.04B91 W/m2
04:04 47 °F 45.92 °F 29.69 in NNE 4 mph 9 mph 96% 0 in WeatherCatV3.04B91 W/m2
04:09 47 °F 45.92 °F 29.69 in Calm   1 mph 96% 0 in WeatherCatV3.04B91 W/m2
04:14 47 °F 45.92 °F 29.69 in Calm   5 mph 96% 0 in WeatherCatV3.04B91 W/m2
04:19 47 °F 45.92 °F 29.69 in ENE 4 mph 13 mph 96% 0 in WeatherCatV3.04B91 W/m2
04:24 47 °F 45.92 °F 29.69 in NE 4 mph 5 mph 96% 0 in WeatherCatV3.04B91 W/m2
04:29 47 °F 45.92 °F 29.69 in NE 4 mph 7 mph 96% 0 in WeatherCatV3.04B91 W/m2
04:34 47.1 °F 46.02 °F 29.69 in NE 4 mph 7 mph 96% 0 in WeatherCatV3.04B91 W/m2
04:39 47.1 °F 46.02 °F 29.69 in ENE 2 mph 9 mph 96% 0 in WeatherCatV3.04B91 W/m2
04:44 47.1 °F 46.02 °F 29.69 in Calm   13 mph 96% 0 in WeatherCatV3.04B91 W/m2
04:49 47.1 °F 46.02 °F 29.69 in ENE 2 mph 9 mph 96% 0 in WeatherCatV3.04B91 W/m2
04:54 47.1 °F 46.02 °F 29.69 in Calm   10 mph 96% 0 in WeatherCatV3.04B91 W/m2
04:59 47.1 °F 46.02 °F 29.68 in Calm   5 mph 96% 0 in WeatherCatV3.04B91 W/m2
05:04 47.3 °F 46.22 °F 29.68 in Calm   5 mph 96% 0 in WeatherCatV3.04B91 W/m2
05:09 47.3 °F 46.22 °F 29.68 in NE 3 mph 8 mph 96% 0 in WeatherCatV3.04B91 W/m2
05:14 47.3 °F 46.22 °F 29.69 in Calm   6 mph 96% 0 in WeatherCatV3.04B91 W/m2
05:19 47.3 °F 46.22 °F 29.69 in NE 3 mph 9 mph 96% 0 in WeatherCatV3.04B91 W/m2
05:24 47.3 °F 46.22 °F 29.69 in Calm     96% 0 in WeatherCatV3.04B91 W/m2
05:29 47.3 °F 46.22 °F 29.67 in Calm     96% 0 in WeatherCatV3.04B91 W/m2
05:34 47.3 °F 46.22 °F 29.67 in ENE 3 mph 9 mph 96% 0 in WeatherCatV3.04B91 W/m2
05:39 47.3 °F 46.22 °F 29.67 in East 3 mph 6 mph 96% 0 in WeatherCatV3.04B91 W/m2
05:44 47.4 °F 46.32 °F 29.67 in Calm   3 mph 96% 0 in WeatherCatV3.04B91 W/m2
05:49 47.4 °F 46.04 °F 29.67 in Calm   7 mph 95% 0 in WeatherCatV3.04B91 W/m2
05:54 47.4 °F 46.04 °F 29.67 in Calm   7 mph 95% 0 in WeatherCatV3.04B91 W/m2
05:59 47.4 °F 46.04 °F 29.67 in Calm     95% 0 in WeatherCatV3.04B91 W/m2
06:04 47.6 °F 46.24 °F 29.67 in ESE 3 mph 3 mph 95% 0 in WeatherCatV3.04B91 W/m2
06:09 47.6 °F 46.24 °F 29.67 in NE 2 mph 5 mph 95% 0 in WeatherCatV3.04B91 W/m2
06:14 47.6 °F 46.24 °F 29.68 in ENE 3 mph 11 mph 95% 0 in WeatherCatV3.04B91 W/m2
06:19 47.6 °F 46.24 °F 29.68 in Calm   4 mph 95% 0 in WeatherCatV3.04B91 W/m2
06:24 47.6 °F 46.24 °F 29.68 in Calm   3 mph 95% 0 in WeatherCatV3.04B91 W/m2
06:29 47.7 °F 46.34 °F 29.67 in NE 1 mph 4 mph 95% 0 in WeatherCatV3.04B91 W/m2
06:34 47.7 °F 46.34 °F 29.67 in NNE 6 mph 6 mph 95% 0 in WeatherCatV3.04B91 W/m2
06:39 47.7 °F 46.34 °F 29.67 in ENE 6 mph 6 mph 95% 0 in WeatherCatV3.04B91 W/m2
06:44 47.7 °F 46.34 °F 29.66 in East 3 mph 4 mph 95% 0 in WeatherCatV3.04B91 W/m2
06:49 47.9 °F 46.54 °F 29.66 in Calm   6 mph 95% 0 in WeatherCatV3.04B91 W/m2
06:54 47.9 °F 46.54 °F 29.66 in NNE 3 mph 7 mph 95% 0 in WeatherCatV3.04B91 W/m2
06:59 47.9 °F 46.54 °F 29.66 in Calm     95% 0 in WeatherCatV3.04B91 W/m2
07:04 47.9 °F 46.54 °F 29.66 in Calm     95% 0 in WeatherCatV3.04B91 W/m2
07:09 47.9 °F 46.54 °F 29.66 in Calm   3 mph 95% 0 in WeatherCatV3.04B91 W/m2
07:14 47.9 °F 46.54 °F 29.64 in Calm   3 mph 95% 0 in WeatherCatV3.04B91 W/m2
07:19 48 °F 46.64 °F 29.64 in NE 4 mph 5 mph 95% 0 in WeatherCatV3.04B91 W/m2
07:24 48 °F 46.64 °F 29.64 in NE 2 mph 5 mph 95% 0 in WeatherCatV3.04B91 W/m2
07:29 48 °F 46.64 °F 29.66 in Calm     95% 0 in WeatherCatV3.04B91 W/m2
07:34 48 °F 46.64 °F 29.66 in Calm     95% 0 in WeatherCatV3.04B91 W/m2
07:39 48 °F 46.64 °F 29.66 in Calm   4 mph 95% 0 in WeatherCatV3.04B91 W/m2
07:44 48 °F 46.64 °F 29.65 in Calm   1 mph 95% 0 in WeatherCatV3.04B91 W/m2
07:49 48 °F 46.36 °F 29.65 in ESE 1 mph 10 mph 94% 0 in WeatherCatV3.04B91 W/m2
07:54 47.9 °F 46.26 °F 29.65 in Calm   2 mph 94% 0 in WeatherCatV3.04B91 W/m2
07:59 47.9 °F 46.26 °F 29.64 in Calm     94% 0 in WeatherCatV3.04B91 W/m2
08:04 47.9 °F 46.26 °F 29.64 in NW 6 mph 6 mph 94% 0 in WeatherCatV3.04B91 W/m2
08:09 48 °F 46.36 °F 29.64 in Calm   6 mph 94% 0 in WeatherCatV3.04B91 W/m2
08:14 48 °F 46.36 °F 29.64 in ENE 3 mph 4 mph 94% 0 in WeatherCatV3.04B91 W/m2
08:19 48 °F 46.36 °F 29.64 in Calm     94% 0 in WeatherCatV3.04B91 W/m2
08:24 48 °F 46.36 °F 29.64 in Calm     94% 0 in WeatherCatV3.04B91 W/m2
08:29 48 °F 46.36 °F 29.66 in Calm   1 mph 94% 0 in WeatherCatV3.04B91 W/m2
08:34 48 °F 46.36 °F 29.66 in Calm   1 mph 94% 0 in WeatherCatV3.04B91 W/m2
08:39 48 °F 46.36 °F 29.66 in Calm     94% 0 in WeatherCatV3.04B91 W/m2
08:44 48 °F 46.36 °F 29.67 in Calm   3 mph 94% 0 in WeatherCatV3.04B91 W/m2
08:49 48 °F 46.36 °F 29.67 in Calm   1 mph 94% 0 in WeatherCatV3.04B91 W/m2
08:54 48.2 °F 46.55 °F 29.67 in Calm   3 mph 94% 0 in WeatherCatV3.04B91 W/m2
08:59 48.2 °F 46.55 °F 29.66 in Calm     94% 0 in WeatherCatV3.04B91 W/m2
09:04 48 °F 46.36 °F 29.66 in Calm   9 mph 94% 0 in WeatherCatV3.04B91 W/m2
09:09 47.9 °F 46.26 °F 29.66 in Calm   11 mph 94% 0 in WeatherCatV3.04B91 W/m2
09:14 47.6 °F 45.96 °F 29.64 in Calm   4 mph 94% 0 in WeatherCatV3.04B91 W/m2
09:19 47.4 °F 45.76 °F 29.64 in Calm     94% 0 in WeatherCatV3.04B91 W/m2
09:24 47.4 °F 45.76 °F 29.64 in Calm   3 mph 94% 0 in WeatherCatV3.04B91 W/m2
09:29 47.3 °F 45.66 °F 29.63 in Calm   1 mph 94% 0 in WeatherCatV3.04B91 W/m2
09:34 47.3 °F 45.66 °F 29.63 in North 2 mph 6 mph 94% 0 in WeatherCatV3.04B91 W/m2
09:39 47.1 °F 45.74 °F 29.63 in Calm     95% 0 in WeatherCatV3.04B91 W/m2
09:44 47.1 °F 45.74 °F 29.62 in East 3 mph 3 mph 95% 0 in WeatherCatV3.04B91 W/m2
09:49 47 °F 45.64 °F 29.62 in NNE 5 mph 9 mph 95% 0 in WeatherCatV3.04B91 W/m2
09:54 47 °F 45.64 °F 29.62 in NE 1 mph 4 mph 95% 0 in WeatherCatV3.04B91 W/m2
09:59 47 °F 45.64 °F 29.63 in Calm     95% 0 in WeatherCatV3.04B91 W/m2
10:04 46.8 °F 45.44 °F 29.63 in East 1 mph 3 mph 95% 0 in WeatherCatV3.04B91 W/m2
10:09 46.8 °F 45.44 °F 29.63 in Calm   2 mph 95% 0 in WeatherCatV3.04B91 W/m2
10:14 46.8 °F 45.44 °F 29.61 in Calm   3 mph 95% 0.11 in WeatherCatV3.04B91 W/m2
10:19 46.7 °F 45.34 °F 29.61 in Calm   1 mph 95% 0.1 in WeatherCatV3.04B91 W/m2
10:24 46.8 °F 45.44 °F 29.61 in Calm   3 mph 95% 0.1 in WeatherCatV3.04B91 W/m2
10:29 46.8 °F 45.44 °F 29.59 in Calm     95% 0.07 in WeatherCatV3.04B91 W/m2
10:34 46.8 °F 45.44 °F 29.59 in Calm   7 mph 95% 0.07 in WeatherCatV3.04B91 W/m2
10:39 46.8 °F 45.72 °F 29.59 in Calm   4 mph 96% 0.05 in WeatherCatV3.04B91 W/m2
10:44 46.7 °F 45.62 °F 29.59 in East 2 mph 2 mph 96% 0.04 in WeatherCatV3.04B91 W/m2
10:49 46.7 °F 45.62 °F 29.59 in NE 1 mph 3 mph 96% 0.04 in WeatherCatV3.04B91 W/m2
10:54 46.7 °F 45.62 °F 29.59 in NNE 3 mph 3 mph 96% 0.05 in WeatherCatV3.04B91 W/m2
10:59 46.7 °F 45.62 °F 29.59 in Calm   4 mph 96% 0.05 in WeatherCatV3.04B91 W/m2
11:04 46.5 °F 45.42 °F 29.59 in East 3 mph 3 mph 96% 0.05 in WeatherCatV3.04B91 W/m2
11:09 46.5 °F 45.42 °F 29.59 in Calm     96% 0.04 in WeatherCatV3.04B91 W/m2
11:14 46.5 °F 45.42 °F 29.58 in Calm     96% 0.04 in WeatherCatV3.04B91 W/m2
11:19 46.5 °F 45.42 °F 29.58 in Calm   3 mph 96% 0.06 in WeatherCatV3.04B91 W/m2
11:24 46.7 °F 45.62 °F 29.58 in Calm     96% 0.06 in WeatherCatV3.04B91 W/m2
11:29 46.5 °F 45.42 °F 29.56 in ENE 1 mph 4 mph 96% 0.14 in WeatherCatV3.04B91 W/m2
11:34 46.4 °F 45.32 °F 29.56 in ENE 6 mph 10 mph 96% 0.12 in WeatherCatV3.04B91 W/m2
11:39 46.4 °F 45.32 °F 29.56 in Calm   5 mph 96% 0.09 in WeatherCatV3.04B91 W/m2
11:44 46.4 °F 45.32 °F 29.55 in Calm     96% 0.09 in WeatherCatV3.04B91 W/m2
11:49 46.4 °F 45.32 °F 29.55 in Calm     96% 0.09 in WeatherCatV3.04B91 W/m2
11:54 46.4 °F 45.32 °F 29.55 in Calm   5 mph 96% 0.06 in WeatherCatV3.04B91 W/m2
11:59 46.4 °F 45.32 °F 29.52 in Calm   4 mph 96% 0.06 in WeatherCatV3.04B91 W/m2
12:04 46.5 °F 45.42 °F 29.52 in NE 6 mph 9 mph 96% 0.05 in WeatherCatV3.04B91 W/m2
12:09 46.5 °F 45.42 °F 29.52 in NE 2 mph 6 mph 96% 0.05 in WeatherCatV3.04B91 W/m2
12:14 46.5 °F 45.42 °F 29.42 in NE 6 mph 8 mph 96% 0.06 in WeatherCatV3.04B91 W/m2
12:19 46.7 °F 45.89 °F 29.42 in NNE 3 mph 11 mph 97% 0.06 in WeatherCatV3.04B91 W/m2
12:24 46.8 °F 45.99 °F 29.42 in Calm   13 mph 97% 0.05 in WeatherCatV3.04B91 W/m2
12:29 47 °F 46.19 °F 29.46 in Calm   11 mph 97% 0.04 in WeatherCatV3.04B91 W/m2
12:34 46.8 °F 45.72 °F 29.46 in ENE 4 mph 6 mph 96% 0 in WeatherCatV3.04B91 W/m2
12:39 47 °F 46.19 °F 29.46 in ENE 3 mph 7 mph 97% 0 in WeatherCatV3.04B91 W/m2
12:44 47 °F 46.19 °F 29.39 in Calm   13 mph 97% 0 in WeatherCatV3.04B91 W/m2
12:49 47.1 °F 46.29 °F 29.39 in East 4 mph 14 mph 97% 0 in WeatherCatV3.04B91 W/m2
12:54 47.3 °F 46.49 °F 29.39 in NNE 2 mph 6 mph 97% 0 in WeatherCatV3.04B91 W/m2
12:59 47.4 °F 46.32 °F 29.45 in East 1 mph 14 mph 96% 0 in WeatherCatV3.04B91 W/m2
13:04 47.4 °F 46.32 °F 29.45 in NE 2 mph 5 mph 96% 0 in WeatherCatV3.04B91 W/m2
13:09 47.4 °F 46.32 °F 29.45 in Calm     96% 0 in WeatherCatV3.04B91 W/m2
13:14 47.4 °F 46.32 °F 29.47 in Calm     96% 0 in WeatherCatV3.04B91 W/m2
13:19 47.6 °F 46.52 °F 29.47 in Calm   3 mph 96% 0 in WeatherCatV3.04B91 W/m2
13:24 47.6 °F 46.52 °F 29.47 in Calm   1 mph 96% 0 in WeatherCatV3.04B91 W/m2
13:29 47.7 °F 46.62 °F 29.45 in Calm   3 mph 96% 0 in WeatherCatV3.04B91 W/m2
13:34 47.7 °F 46.62 °F 29.45 in Calm   7 mph 96% 0 in WeatherCatV3.04B91 W/m2
13:39 47.7 °F 46.62 °F 29.45 in Calm   13 mph 96% 0 in WeatherCatV3.04B91 W/m2
13:44 47.9 °F 46.81 °F 29.44 in Calm   10 mph 96% 0 in WeatherCatV3.04B91 W/m2
13:49 47.9 °F 46.81 °F 29.44 in Calm   1 mph 96% 0 in WeatherCatV3.04B91 W/m2
13:54 48 °F 46.91 °F 29.44 in Calm   4 mph 96% 0 in WeatherCatV3.04B91 W/m2
13:59 48 °F 46.91 °F 29.44 in Calm   12 mph 96% 0 in WeatherCatV3.04B91 W/m2
14:04 48.2 °F 47.11 °F 29.44 in NNE 4 mph 10 mph 96% 0 in WeatherCatV3.04B91 W/m2
14:09 48.3 °F 47.21 °F 29.44 in Calm   4 mph 96% 0 in WeatherCatV3.04B91 W/m2
14:13 48.5 °F 47.13 °F 29.44 in ENE 2 mph 9 mph 95% 0 in WeatherCatV3.04B91 W/m2
14:19 48.6 °F 47.23 °F 29.40 in Calm   6 mph 95% 0 in WeatherCatV3.04B91 W/m2
14:23 48.8 °F 47.43 °F 29.40 in NE 2 mph 10 mph 95% 0 in WeatherCatV3.04B91 W/m2
14:29 48.8 °F 47.43 °F 29.40 in Calm   9 mph 95% 0 in WeatherCatV3.04B91 W/m2
14:33 48.9 °F 47.53 °F 29.40 in Calm   10 mph 95% 0 in WeatherCatV3.04B91 W/m2
14:39 49.1 °F 47.73 °F 29.40 in East 4 mph 12 mph 95% 0 in WeatherCatV3.04B91 W/m2
14:44 49.2 °F 47.55 °F 29.40 in Calm   9 mph 94% 0 in WeatherCatV3.04B91 W/m2
14:49 49.2 °F 47.55 °F 29.40 in Calm   1 mph 94% 0 in WeatherCatV3.04B91 W/m2
14:53 49.2 °F 47.55 °F 29.40 in Calm   10 mph 94% 0 in WeatherCatV3.04B91 W/m2
14:59 49.5 °F 47.84 °F 29.36 in NE 1 mph 3 mph 94% 0 in WeatherCatV3.04B91 W/m2
15:04 49.6 °F 47.94 °F 29.36 in Calm   5 mph 94% 0 in WeatherCatV3.04B91 W/m2
15:09 49.8 °F 47.86 °F 29.36 in NE 1 mph 2 mph 93% 0 in WeatherCatV3.04B91 W/m2
15:14 49.8 °F 47.86 °F 29.37 in North 6 mph 6 mph 93% 0 in WeatherCatV3.04B91 W/m2
15:19 49.8 °F 47.86 °F 29.37 in ESE 2 mph 7 mph 93% 0 in WeatherCatV3.04B91 W/m2
15:23 49.8 °F 47.57 °F 29.37 in Calm   5 mph 92% 0 in WeatherCatV3.04B91 W/m2
15:29 49.8 °F 47.57 °F 29.36 in ESE 5 mph 12 mph 92% 0 in WeatherCatV3.04B91 W/m2
15:33 49.6 °F 47.37 °F 29.36 in Calm   2 mph 92% 0 in WeatherCatV3.04B91 W/m2
15:39 49.8 °F 47.57 °F 29.36 in North 4 mph 4 mph 92% 0 in WeatherCatV3.04B91 W/m2
15:44 49.8 °F 47.57 °F 29.37 in NNE 2 mph 2 mph 92% 0 in WeatherCatV3.04B91 W/m2
15:49 49.8 °F 47.57 °F 29.37 in NNE 9 mph 9 mph 92% 0 in WeatherCatV3.04B91 W/m2
15:53 49.8 °F 47.28 °F 29.37 in Calm   12 mph 91% 0 in WeatherCatV3.04B91 W/m2
15:59 49.8 °F 47.57 °F 29.35 in NE 5 mph 6 mph 92% 0 in WeatherCatV3.04B91 W/m2
16:03 49.8 °F 47.57 °F 29.35 in ESE 1 mph 5 mph 92% 0 in WeatherCatV3.04B91 W/m2
16:09 49.6 °F 47.37 °F 29.35 in Calm   2 mph 92% 0 in WeatherCatV3.04B91 W/m2
16:14 49.6 °F 47.37 °F 29.34 in Calm   6 mph 92% 0 in WeatherCatV3.04B91 W/m2
16:19 49.5 °F 47.27 °F 29.34 in South 2 mph 6 mph 92% 0 in WeatherCatV3.04B91 W/m2
16:24 49.4 °F 47.17 °F 29.34 in Calm   1 mph 92% 0 in WeatherCatV3.04B91 W/m2
16:29 49.4 °F 47.46 °F 29.32 in Calm   3 mph 93% 0 in WeatherCatV3.04B91 W/m2
16:33 49.4 °F 47.46 °F 29.32 in NE 4 mph 4 mph 93% 0 in WeatherCatV3.04B91 W/m2
16:39 49.2 °F 47.26 °F 29.32 in Calm     93% 0 in WeatherCatV3.04B91 W/m2
16:44 49.2 °F 47.26 °F 29.31 in Calm     93% 0 in WeatherCatV3.04B91 W/m2
16:49 49.2 °F 47.26 °F 29.31 in Calm     93% 0 in WeatherCatV3.04B91 W/m2
16:54 49.2 °F 47.55 °F 29.31 in Calm   2 mph 94% 0 in WeatherCatV3.04B91 W/m2
16:59 49.4 °F 47.75 °F 29.30 in NE 2 mph 2 mph 94% 0 in WeatherCatV3.04B91 W/m2
17:04 49.5 °F 47.84 °F 29.30 in Calm   3 mph 94% 0 in WeatherCatV3.04B91 W/m2
17:09 49.5 °F 47.84 °F 29.30 in Calm     94% 0 in WeatherCatV3.04B91 W/m2
17:14 49.6 °F 47.94 °F 29.28 in Calm     94% 0.04 in WeatherCatV3.04B91 W/m2
17:19 49.6 °F 48.23 °F 29.28 in Calm     95% 0.04 in WeatherCatV3.04B91 W/m2
17:24 49.6 °F 48.23 °F 29.28 in Calm     95% 0.04 in WeatherCatV3.04B91 W/m2
17:29 49.6 °F 48.23 °F 29.27 in Calm   2 mph 95% 0.04 in WeatherCatV3.04B91 W/m2
17:34 49.8 °F 48.42 °F 29.27 in Calm     95% 0.04 in WeatherCatV3.04B91 W/m2
17:39 49.8 °F 48.42 °F 29.27 in Calm     95% 0.06 in WeatherCatV3.04B91 W/m2
17:44 49.9 °F 48.8 °F 29.26 in Calm   3 mph 96% 0.17 in WeatherCatV3.04B91 W/m2
17:49 50.1 °F 49 °F 29.26 in Calm     96% 0.11 in WeatherCatV3.04B91 W/m2
17:53 50.1 °F 49 °F 29.26 in Calm   2 mph 96% 0.08 in WeatherCatV3.04B91 W/m2
17:59 50.2 °F 49.1 °F 29.26 in Calm     96% 0.08 in WeatherCatV3.04B91 W/m2
18:03 50.2 °F 49.1 °F 29.26 in Calm     96% 0.06 in WeatherCatV3.04B91 W/m2
18:09 50.4 °F 49.3 °F 29.26 in Calm   2 mph 96% 0.1 in WeatherCatV3.04B91 W/m2
18:13 50.5 °F 49.4 °F 29.26 in Calm     96% 0.09 in WeatherCatV3.04B91 W/m2
18:19 50.5 °F 49.4 °F 29.25 in Calm     96% 0.23 in WeatherCatV3.04B91 W/m2
18:24 50.7 °F 49.88 °F 29.25 in Calm     97% 0.17 in WeatherCatV3.04B91 W/m2
18:29 50.7 °F 49.6 °F 29.24 in Calm     96% 0.12 in WeatherCatV3.04B91 W/m2
18:34 50.8 °F 49.98 °F 29.24 in Calm     97% 0.06 in WeatherCatV3.04B91 W/m2
18:39 51 °F 50.18 °F 29.24 in Calm     97% 0.04 in WeatherCatV3.04B91 W/m2
18:44 51.1 °F 50.28 °F 29.23 in Calm     97% 0 in WeatherCatV3.04B91 W/m2
18:49 51.4 °F 50.58 °F 29.23 in Calm     97% 0 in WeatherCatV3.04B91 W/m2
18:54 51.9 °F 51.07 °F 29.23 in Calm     97% 0 in WeatherCatV3.04B91 W/m2
18:59 52.2 °F 51.37 °F 29.22 in Calm     97% 0 in WeatherCatV3.04B91 W/m2
19:04 52.8 °F 51.97 °F 29.22 in Calm     97% 0.07 in WeatherCatV3.04B91 W/m2
19:09 53.1 °F 52.27 °F 29.22 in Calm     97% 0.11 in WeatherCatV3.04B91 W/m2
19:14 53.3 °F 52.47 °F 29.24 in Calm     97% 0.1 in WeatherCatV3.04B91 W/m2
19:19 53.5 °F 52.67 °F 29.24 in Calm     97% 0.08 in WeatherCatV3.04B91 W/m2
19:24 53.8 °F 53.25 °F 29.24 in Calm     98% 0.07 in WeatherCatV3.04B91 W/m2
19:29 54.1 °F 53.55 °F 29.24 in Calm     98% 0.04 in WeatherCatV3.04B91 W/m2
19:34 54.2 °F 53.65 °F 29.24 in Calm     98% 0 in WeatherCatV3.04B91 W/m2
19:39 54.4 °F 53.85 °F 29.24 in Calm     98% 0 in WeatherCatV3.04B91 W/m2
19:44 54.5 °F 53.95 °F 29.23 in Calm     98% 0 in WeatherCatV3.04B91 W/m2
19:49 54.5 °F 53.95 °F 29.23 in Calm     98% 0 in WeatherCatV3.04B91 W/m2
19:54 54.7 °F 54.14 °F 29.23 in Calm     98% 0 in WeatherCatV3.04B91 W/m2
19:59 54.8 °F 54.24 °F 29.23 in Calm     98% 0 in WeatherCatV3.04B91 W/m2
20:04 55 °F 54.44 °F 29.23 in Calm     98% 0 in WeatherCatV3.04B91 W/m2
20:09 55.1 °F 54.54 °F 29.23 in Calm   3 mph 98% 0.08 in WeatherCatV3.04B91 W/m2
20:14 55.1 °F 54.54 °F 29.24 in Calm   7 mph 98% 0.54 in WeatherCatV3.04B91 W/m2
20:19 54.8 °F 54.24 °F 29.24 in Calm   4 mph 98% 0.16 in WeatherCatV3.04B91 W/m2
20:24 54.5 °F 53.95 °F 29.24 in Calm   10 mph 98% 0.31 in WeatherCatV3.04B91 W/m2
20:29 54.2 °F 53.65 °F 29.24 in SW 1 mph 4 mph 98% 0.33 in WeatherCatV3.04B91 W/m2
20:34 53.9 °F 53.35 °F 29.24 in Calm   6 mph 98% 0.15 in WeatherCatV3.04B91 W/m2
20:39 53.8 °F 53.25 °F 29.24 in WSW 3 mph 3 mph 98% 0.12 in WeatherCatV3.04B91 W/m2
20:44 53.5 °F 52.95 °F 29.24 in Calm   5 mph 98% 0.12 in WeatherCatV3.04B91 W/m2
20:49 53.3 °F 52.75 °F 29.24 in Calm     98% 0.06 in WeatherCatV3.04B91 W/m2
20:54 53.3 °F 52.75 °F 29.24 in Calm     98% 0.05 in WeatherCatV3.04B91 W/m2
20:59 53.2 °F 52.65 °F 29.24 in Calm     98% 0.11 in WeatherCatV3.04B91 W/m2
21:04 53.1 °F 52.55 °F 29.24 in Calm     98% 0.08 in WeatherCatV3.04B91 W/m2
21:09 52.9 °F 52.07 °F 29.24 in Calm     97% 0.05 in WeatherCatV3.04B91 W/m2
21:14 52.8 °F 51.97 °F 29.24 in Calm     97% 0 in WeatherCatV3.04B91 W/m2
21:19 52.5 °F 51.67 °F 29.24 in Calm     97% 0 in WeatherCatV3.04B91 W/m2
21:24 52.2 °F 51.37 °F 29.24 in Calm     97% 0 in WeatherCatV3.04B91 W/m2
21:29 51.9 °F 51.07 °F 29.23 in Calm     97% 0 in WeatherCatV3.04B91 W/m2
21:34 51.7 °F 50.87 °F 29.23 in Calm     97% 0 in WeatherCatV3.04B91 W/m2
21:39 51.6 °F 51.05 °F 29.23 in Calm     98% 0 in WeatherCatV3.04B91 W/m2
21:44 51.4 °F 50.85 °F 29.24 in Calm     98% 0 in WeatherCatV3.04B91 W/m2
21:49 51.3 °F 50.75 °F 29.24 in Calm     98% 0 in WeatherCatV3.04B91 W/m2
21:54 51.1 °F 50.55 °F 29.24 in Calm     98% 0 in WeatherCatV3.04B91 W/m2
21:59 51.1 °F 50.55 °F 29.24 in Calm     98% 0 in WeatherCatV3.04B91 W/m2
22:04 51 °F 50.45 °F 29.24 in Calm     98% 0 in WeatherCatV3.04B91 W/m2
22:09 51 °F 50.45 °F 29.24 in Calm     98% 0 in WeatherCatV3.04B91 W/m2
22:14 51 °F 50.45 °F 29.24 in Calm     98% 0 in WeatherCatV3.04B91 W/m2
22:19 51 °F 50.45 °F 29.24 in Calm     98% 0 in WeatherCatV3.04B91 W/m2
22:23 51 °F 50.45 °F 29.24 in Calm     98% 0 in WeatherCatV3.04B91 W/m2
22:29 51.1 °F 50.55 °F 29.24 in Calm     98% 0 in WeatherCatV3.04B91 W/m2
22:34 51.1 °F 50.55 °F 29.24 in Calm     98% 0 in WeatherCatV3.04B91 W/m2
22:39 51.3 °F 50.75 °F 29.24 in Calm   4 mph 98% 0.35 in WeatherCatV3.04B91 W/m2
22:44 51.7 °F 51.15 °F 29.24 in WSW 2 mph 5 mph 98% 0.15 in WeatherCatV3.04B91 W/m2
22:49 52 °F 51.45 °F 29.24 in Calm     98% 0.13 in WeatherCatV3.04B91 W/m2
22:54 52 °F 51.45 °F 29.24 in Calm     98% 0.12 in WeatherCatV3.04B91 W/m2
22:59 51.9 °F 51.35 °F 29.24 in Calm   5 mph 98% 0.09 in WeatherCatV3.04B91 W/m2
23:04 52 °F 51.45 °F 29.24 in Calm     98% 0.15 in WeatherCatV3.04B91 W/m2
23:08 52 °F 51.45 °F 29.24 in WSW 3 mph 5 mph 98% 0.2 in WeatherCatV3.04B91 W/m2
23:14 52.5 °F 52.23 °F 29.24 in Calm   5 mph 99% 0.13 in WeatherCatV3.04B91 W/m2
23:19 52.8 °F 52.25 °F 29.24 in Calm   3 mph 98% 0.09 in WeatherCatV3.04B91 W/m2
23:24 52.8 °F 52.25 °F 29.24 in Calm     98% 0.1 in WeatherCatV3.04B91 W/m2
23:29 52.8 °F 52.25 °F 29.22 in Calm     98% 0.09 in WeatherCatV3.04B91 W/m2
23:34 52.6 °F 52.05 °F 29.22 in Calm     98% 0.05 in WeatherCatV3.04B91 W/m2
23:39 52.5 °F 51.95 °F 29.22 in Calm     98% 0.04 in WeatherCatV3.04B91 W/m2
23:44 52.2 °F 51.65 °F 29.20 in Calm     98% 0 in WeatherCatV3.04B91 W/m2
23:49 52 °F 51.45 °F 29.20 in Calm     98% 0 in WeatherCatV3.04B91 W/m2
23:54 51.7 °F 51.15 °F 29.20 in Calm     98% 0 in WeatherCatV3.04B91 W/m2
23:59 51.6 °F 51.05 °F 29.20 in Calm     98% 0 in WeatherCatV3.04B91 W/m2
Bellevue, Nebraska, USA
Compliments of Weather Underground - 3.25 mb